This is the latest recevied weather packets stored in our database for station/object WE3WEE. If no packets are shown the sender has not sent any weather packets the latest 10 day(s).
| Time | Temp. | Humidity | Pressure | Rain* | Wind** | Luminosity | Snow |
|---|---|---|---|---|---|---|---|
| 1777951823 | 16.67° C | 57% | 1008.5 hPa | 0 mm | - | - | - |
| 1777951520 | 16.11° C | 57% | 1009.6 hPa | 0 mm | - | - | - |
| 1777951216 | 16.11° C | 59% | 1009.6 hPa | 0 mm | - | - | - |
| 1777950914 | 15.56° C | 57% | 1009.6 hPa | 0 mm | - | - | - |
| 1777950610 | 15.56° C | 59% | 1008.5 hPa | 0 mm | - | - | - |
| 1777950307 | 15.56° C | 59% | 1008.5 hPa | 0 mm | - | - | - |
| 1777950002 | 16.11° C | 59% | 1008.5 hPa | 0 mm | - | - | - |
| 1777949699 | 16.67° C | 59% | 1008.5 hPa | 0 mm | - | - | - |
| 1777949398 | 16.67° C | 58% | 1008.5 hPa | 0 mm | - | - | - |
| 1777949094 | 16.67° C | 57% | 1008.5 hPa | 0 mm | - | - | - |
| 1777948792 | 17.22° C | 56% | 1009.6 hPa | 0 mm | - | - | - |
| 1777948489 | 17.22° C | 56% | 1009.6 hPa | 0 mm | - | - | - |
| 1777948186 | 17.22° C | 58% | 1009.6 hPa | 0 mm | - | - | - |
| 1777947884 | 17.22° C | 55% | 1009.6 hPa | 0 mm | - | - | - |
| 1777947581 | 17.78° C | 57% | 1009.6 hPa | 0 mm | - | - | - |
| 1777947277 | 17.78° C | 53% | 1009.6 hPa | 0 mm | - | - | - |
| 1777946973 | 17.78° C | 53% | 1008.5 hPa | 0 mm | - | - | - |
| 1777946668 | 18.33° C | 53% | 1008.5 hPa | 0 mm | - | - | - |
| 1777946365 | 18.33° C | 52% | 1008.5 hPa | 0 mm | - | - | - |
| 1777946063 | 18.33° C | 53% | 1008.5 hPa | 0 mm | - | - | - |
| 1777945760 | 18.33° C | 51% | 1008.5 hPa | 0 mm | - | - | - |
| 1777945456 | 18.33° C | 51% | 1008.5 hPa | 0 mm | - | - | - |
| 1777945154 | 18.33° C | 51% | 1008.5 hPa | 0 mm | - | - | - |
| 1777944850 | 18.89° C | 51% | 1008.5 hPa | 0 mm | - | - | - |
| 1777944548 | 18.89° C | 51% | 1008.5 hPa | 0 mm | - | - | - |
* Rain latest hour (hover to see other rain measurements)
** Current wind speed in m/s (hover to see current wind gust speed)